This is the latest recevied weather packets stored in our database for station/object IR3AS. If no packets are shown the sender has not sent any weather packets the latest 10 day(s).
| Time | Temp. | Humidity | Pressure | Rain* | Wind** | Luminosity | Snow |
|---|---|---|---|---|---|---|---|
| 1787918398 | 18.33° C | 54% | 870.3 hPa | 0 mm | - | - | - |
| 1787918098 | 18.33° C | 53% | 868.6 hPa | 0 mm | - | - | - |
| 1787917830 | 18.89° C | 52% | 867.2 hPa | 0 mm | - | - | - |
| 1787917798 | 18.89° C | 52% | 867.2 hPa | 0 mm | - | - | - |
| 1787917498 | 18.89° C | 51% | 867.1 hPa | 0 mm | - | - | - |
| 1787917198 | 18.33° C | 56% | 869.2 hPa | 0 mm | - | - | - |
| 1787916898 | 17.78° C | 54% | 868.1 hPa | 0 mm | - | - | - |
| 1787916598 | 17.78° C | 55% | 866.5 hPa | 0 mm | - | - | - |
| 1787916298 | 17.78° C | 55% | 867.6 hPa | 0 mm | - | - | - |
| 1787915998 | 18.33° C | 56% | 869.3 hPa | 0 mm | - | - | - |
| 1787915698 | 18.33° C | 54% | 869.7 hPa | 0 mm | - | - | - |
| 1787915398 | 18.89° C | 55% | 869.6 hPa | 0 mm | - | - | - |
| 1787915098 | 18.33° C | 57% | 870.3 hPa | 0 mm | - | - | - |
| 1787914798 | 17.78° C | 58% | 870.6 hPa | 0 mm | - | - | - |
| 1787914499 | 17.78° C | 58% | 870.8 hPa | 0 mm | - | - | - |
| 1787914198 | 17.78° C | 57% | 869.6 hPa | 0 mm | - | - | - |
| 1787913898 | 17.78° C | 57% | 869.9 hPa | 0 mm | - | - | - |
| 1787913598 | 17.78° C | 59% | 869.9 hPa | 0 mm | - | - | - |
| 1787913298 | 17.78° C | 58% | 870.4 hPa | 0 mm | - | - | - |
| 1787912998 | 17.22° C | 58% | 870 hPa | 0 mm | - | - | - |
| 1787912698 | 17.22° C | 58% | 869.7 hPa | 0 mm | - | - | - |
| 1787912442 | 17.22° C | 59% | 867.6 hPa | 0 mm | - | - | - |
| 1787912398 | 17.22° C | 59% | 867.6 hPa | 0 mm | - | - | - |
| 1787912099 | 17.78° C | 58% | 869.1 hPa | 0 mm | - | - | - |
| 1787911859 | 17.78° C | 59% | 867.6 hPa | 0 mm | - | - | - |
* Rain latest hour (hover to see other rain measurements)
** Current wind speed in m/s (hover to see current wind gust speed)